www.pogodaiklimat.ru

Погода и климат >> Архив погоды >> Россия >> город Москва >> Москва


АРХИВ ПОГОДЫ в Москве

Время (UTC), дата Ветер
(напр.,м/с)
 
Видим.   Явления Облачность Т
(С)
Тd
(С)
f
(%)
Тe
(С)
Тes
(С)
Комфортность P
(гПа)
Po
(гПа)
Тmin
(С)
Tmax
(С)
R
(мм)
S
(см)
18 20.03 С 1 н/о в посл. час дождь 10/10 600 м
[Sc]
+3.0 +1.9 92 +1 +1 по сезону 1009.5 990.0 +4.0 2
21 20.03 штиль 0 н/о дымка 10/10 600 м
[Sc]
+2.4 +1.4 93 +1 +1 по сезону 1009.8 990.3
00 21.03 С 1 н/о дымка 10/10 300 м
[Frnb]
+2.5 +1.4 92 +1 +1 тепло 1010.2 990.7
03 21.03 штиль 0 н/о слабый дождь 10/10 300 м
[Frnb]
+2.1 +1.2 94 +1 +1 по сезону 1011.1 991.5 +2.1 0.6
06 21.03 СЗ 1 4000 м дымка {дождь} 10/10 200 м
[Frnb]
+2.7 +1.5 92 +1 +1 по сезону 1011.9 992.3 +2.0 0.1
09 21.03 СЗ 1 10 км 10/10 300 м
[Sc]
+4.7 +1.4 79 +4 +4 тепло 1012.5 993.1
12 21.03 ЮЗ 1 10 км 10/10 600 м
[Sc]
+6.1 +0.4 67 +5 +5 по сезону 1012.8 993.5
15 21.03 ЮЗ 1 10 км 9/9 600 м
[Sc]
+5.7 -1.6 59 +5 +5 тепло 1013.6 994.2 0.1
18 21.03 Ю 1 н/о ясно +4.2 0.0 74 +3 +3 тепло 1015.1 995.6 +6.6
21 21.03 Ю 1 н/о 10/0
[Ac und]
+4.6 +1.1 78 +3 +3 тепло 1015.4 995.9
00 22.03 Ю 1 н/о 9/6 1000 м
[Sc Ac trans]
+3.7 -0.2 76 +2 +2 тепло 1016.0 996.5
03 22.03 штиль 0 н/о 10/10 1000 м
[Sc]
+3.3 +0.4 81 +2 +2 тепло 1016.9 997.3 +2.1
06 22.03 ЮЗ 1 10 км слабый дождь 10/0
[Ac As]
+4.7 +1.7 81 +3 +4 тепло 1017.9 998.4 +2.1
09 22.03 Ю 1 10 км {дождь} 9/4 600 м
[Sc Ac trans]
+8.0 +3.7 74 +7 +10 тепло 1017.4 998.1
12 22.03 Ю 1 10 км {дождь} 8/6 1000 м
[Sc Ac trans]
+10.5 +4.0 64 +10 +12 тепло 1016.5 997.4
15 22.03 Ю 1 10 км 9/9 1000 м
[Sc]
+9.4 +4.1 69 +9 +9 тепло 1016.1 996.9
18 22.03 ЮЗ 1 н/о 10/10 600 м
[Sc]
+8.0 +4.1 76 +7 +7 тепло 1016.7 997.4 +10.8 0.0
21 22.03 штиль 0 н/о 10/10 1000 м
[Sc]
+7.2 +4.3 82 +6 +6 тепло 1015.8 996.5
00 23.03 С 4 н/о дождь 10/10 300 м
[Frnb Ns]
+3.7 +1.9 88 -1 -1 по сезону 1017.1 997.5
03 23.03 штиль 0 н/о в посл. час дождь со снегом 9/9 600 м
[Sc]
+1.0 +0.5 96 -0 -0 по сезону 1018.7 998.9 +0.6 7
06 23.03 10 км {снег, дождь} н/о +2.6 +1.8 94 +1 +2 по сезону 1020.3 1000.6 +0.6 7
09 23.03 З 2 10 км 4/4 1000 м
[Sc]
+8.2 +1.4 62 +7 +11 тепло 1020.9 1001.6
12 23.03 10 км н/о +9.8 -2.3 43 +9 +11 тепло 1020.7 1001.5
15 23.03 З 1 10 км 3/3 600 м
[Cu hum]
+8.2 -3.9 42 +8 +8 тепло 1021.2 1001.9
18 23.03 ЮЗ 1 н/о 3/0
[Ci sp]
+4.6 -2.7 59 +4 +4 тепло 1022.8 1003.2 +10.0
21 23.03 З 1 н/о ясно +2.0 -3.4 67 +1 +1 по сезону 1024.1 1004.3
00 24.03 штиль 0 н/о ясно -1.0 -3.4 84 -2 -2 по сезону 1023.9 1003.9
03 24.03 штиль 0 н/о ясно -0.5 -3.4 81 -2 -2 по сезону 1023.2 1003.2 -1.2
06 24.03 штиль 0 10 км 10/0
[Cs]
+5.3 -4.1 51 +5 +8 тепло 1021.3 1001.8 -1.2
09 24.03 ЮЗ 1 10 км 10/0
[As trans]
+7.4 -5.0 41 +7 +11 тепло 1019.1 999.7
12 24.03 ЮЗ 1 10 км 10/0
[As trans]
+8.3 -5.5 37 +8 +11 тепло 1015.7 996.4
15 24.03 С 2
{10}
10 км слабый дождь 10/8 300 м
[Frnb As op]
+4.0 +1.1 81 +1 +1 по сезону 1014.7 995.2
18 24.03 штиль 0 н/о в посл. час снег {дождь} 10/3 300 м
[Frnb As op]
+0.7 0.0 95 -1 -1 по сезону 1014.9 995.1 +8.5 3
21 24.03 СЗ 2 н/о дымка 3/3 600 м
[Sc]
+1.0 -2.8 76 -2 -2 по сезону 1014.4 994.7
00 25.03 СЗ 2 н/о ясно -0.9 -6.5 66 -4 -4 по сезону 1014.8 995.0
03 25.03 СЗ 1 н/о 3/3 600 м
[Sc]
-2.0 -7.4 67 -4 -4 по сезону 1015.1 995.1 -2.0 3
06 25.03 СЗ 1 10 км 9/9 600 м
[Sc]
-0.6 -7.1 61 -2 -2 по сезону 1014.9 995.0 -2.2 <0.5
09 25.03 СЗ 3 10 км 8/8 600 м
[Sc]
+1.5 -6.4 56 -2 -1 по сезону 1014.5 994.8
12 25.03 СЗ 2 10 км 9/9 600 м
[Sc]
+3.9 -6.8 46 +2 +2 по сезону 1013.3 993.8
15 25.03 СЗ 2 10 км ясно +4.0 -9.3 37 +2 +2 по сезону 1013.0 993.5
18 25.03 штиль 0 н/о ясно -0.2 -7.0 60 -1 -1 по сезону 1014.3 994.5 +4.9
21 25.03 штиль 0 н/о ясно -1.3 -7.0 65 -2 -2 по сезону 1015.1 995.1
00 26.03 штиль 0 н/о ясно -2.3 -7.2 69 -3 -3 по сезону 1015.9 995.9
03 26.03 штиль 0 10 км ясно -3.5 -7.0 77 -4 -4 по сезону 1017.0 996.8 -3.7
06 26.03 С 1 10 км ясно +1.1 -7.6 52 -0 +4 по сезону 1017.7 997.9 -3.7
09 26.03 З 1 10 км ясно +5.2 -8.8 36 +5 +14 опасность
простуды
1016.5 997.0
12 26.03 З 2 10 км 5/1 1000 м
[Sc Ci]
+5.8 -9.3 33 +4 +9 по сезону 1014.2 994.8
15 26.03 З 1 10 км 10/0
[As trans Cs]
+4.5 -10.0 34 +4 +4 по сезону 1010.8 991.4
18 26.03 ЮЗ 2 н/о 10/0
[Ac As]
+3.3 -8.5 42 +1 +1 по сезону 1006.8 987.4 +6.8
21 26.03 Ю 1 н/о снег 10/10 300 м
[Frnb Ns]
-0.1 -0.9 94 -2 -2 по сезону 1001.3 981.7
00 27.03 ЮЗ 1 н/о слабый снег 10/10 300 м
[Frnb Ns]
+0.2 -0.2 97 -2 -2 по сезону 993.9 974.5
03 27.03 СЗ 1 2000 м снег 10/10 300 м
[Frnb Ns]
+0.4 +0.1 98 -2 -2 по сезону 990.9 971.6 -0.1 9
06 27.03 СЗ 2 2000 м снег [диам. отлож. мокр. снега 0 мм] 10/10 300 м
[Frnb Ns]
+1.0 -0.1 92 -3 -3 по сезону 993.1 973.8 -0.1 12 8
09 27.03 СЗ 3
{12}
10 км {снег} 8/8 600 м
[Cu Sc]
+2.8 -2.5 68 -1 +1 по сезону 996.8 977.5
12 27.03 СЗ 4-11
{14}
10 км {снег} 6/4 600 м
[Cu med, cong Ci fib]
+3.1 -3.6 61 -1 +1 прохладно 999.3 980.0
15 27.03 СЗ 3
{12}
10 км {ливн. осадки} 4/4 600 м
[Sc diur, vesp]
+2.8 -3.4 64 -1 -1 прохладно 1001.2 981.9 5

 

Местоположение метеостанции Москва (город Москва, Россия): широта 55.83 долгота 37.62 высота над уровнем моря 156 м.

В архиве по умолчанию представлена погода в Москве за последнюю неделю. Архивные данные за месяц целиком и за предыдущие месяцы, начиная с января 2011 года, Вы можете получить, выбрав интересующий диапазон дат из раскрывающегося списка и нажав кнопку "Ввод!".

Внимание! Время в таблицах - всемирное. Для получения местного времени необходимо прибавить поправку, которая в Москве равна 3 ч.

Смотрите также архив погоды в соседних городах и на ближайших метеорологических станциях:

Погода в Москве (Балчуг) (город Москва, Россия) (9 км)
Погода в Москве (Тушино) (город Москва, Россия) (12 км)
Погода в Москве (Строгино) (город Москва, Россия) (14 км)
Погода в Шереметьево (Московская область, Россия) (20 км)
Погода в Немчиновке (город Москва, Россия) (21 км)
Погода в Подмосковной (Московская область, Россия) (29 км)
Погода в Внуково (Московская область, Россия) (33 км)
Погода в Михайловском (Московская область, Россия) (49 км)
Погода в Ново-Йерусалиме (Московская область, Россия) (51 км)
Погода в Домодедово (Московская область, Россия) (51 км)

Пояснения к столбцам:

Ветер - указаны скорость ветра в м/с - средняя за 10 мин, порывы в срок и между сроками (в фигурных скобках) и направление, откуда дует ветер: С - северный, СВ - северо-восточный, В - восточный, ЮВ - юго-восточный, Ю - южный, ЮЗ - юго-западный, З - западный, СЗ - северо-западный.
Видимость - горизонтальная дальность видимости в метрах или километрах. При видимости от 1 до 10 км при отсутствии осадков обычно наблюдается дымка, при ухудшении видимости до 1 км и менее - туман. В сухую погоду видимость может ухудшаться дымом, пылью или мглою.
Явления - указаны атмосферные явления, наблюдавшиеся в срок или в последний час перед сроком; фигурными скобками обозначены явления, наблюдавшиеся между сроками (за 1-3 часа до срока); квадратными скобками обозначены град или гололедные отложения с указанием их диаметра в мм.
Облачность - указаны через наклонную черту общая и нижняя облачность в баллах и высота нижней границы облаков в метрах; квадратными скобками обозначены формы облаков: Ci - перистые, Cs - перисто-слоистые, Cc - перисто-кучевые, Ac - высококучевые, As - высокослоистые, Sc - слоисто-кучевые, Ns - слоисто-дождевые, Cu - кучевые, Cb - кучево-дождевые. Подробнее классификацию облаков см. в Атласе облаков (PDF).
T - Температура воздуха - температура, измеренная на высоте 2 м над землей.
Td - Температура точки росы - температура, при понижении до которой содержащийся в воздухе водяной пар достигнет насыщения.
f - Относительная влажность воздуха - влажноcть воздуха, измеренная на высоте 2 м над землей.
Te - Эффективная температура - температура, которую ощущает одетый по сезону человек в тени. Характеристика душности погоды. При расчете учитывается влияние влажности воздуха и скорости ветра на теплоощущения человека.
Tes - Эффективная температура на солнце - температура, которую ощущает человек, с поправкой на солнечный нагрев. Характеристика знойности погоды. Зависит от высоты солнца над горизонтом, облачности и скорости ветра. Ночью, в пасмурную погоду, а также при ветре 12 м/с и более поправка равна нулю.
P - Атмосферное давление - приведенное к уровню моря атмосферное давление.
Po - Атмосферное давление - измеренное на уровне метеостанции атмосферное давление.
Tmin - Минимальная температура - минимум температуры воздуха на высоте 2 м над землей.
Tmax - Максимальная температура - максимум температуры воздуха на высоте 2 м над землей.
R - Количество осадков - Количество выпавших осадков, мм. При наведении курсора мыши на число - период времени, за который выпало указанное количество осадков.
S - Снежный покров - Высота снежного покрова, см. При наведении курсора мыши на число - состояние снежного покрова и степень покрытия местности в баллах.